Stations météo

Publicité
St-Etienne Boutheon, France (7475): Température de l'air & dewpoint: 19.11.2020 23:00:00 - 25.11.2020 23:00:00 (CET)St-Etienne Boutheon, France (7475): Température de l'air 5cm: 19.11.2020 23:00:00 - 25.11.2020 23:00:00 (CET)St-Etienne Boutheon, France (7475): Température de l'air -20cm & Température de l'air -100cm: 19.11.2020 23:00:00 - 25.11.2020 23:00:00 (CET)St-Etienne Boutheon, France (7475): Vitesse du vent & gusts: 19.11.2020 23:00:00 - 25.11.2020 23:00:00 (CET)St-Etienne Boutheon, France (7475): Direction du vent: 19.11.2020 23:00:00 - 25.11.2020 23:00:00 (CET)St-Etienne Boutheon, France (7475): reduced air pressure: 19.11.2020 23:00:00 - 25.11.2020 23:00:00 (CET)St-Etienne Boutheon, France (7475): visibility: 19.11.2020 23:00:00 - 25.11.2020 23:00:00 (CET)St-Etienne Boutheon, France (7475): Ensoleillement: 19.11.2020 23:00:00 - 25.11.2020 23:00:00 (CET)St-Etienne Boutheon, France (7475): Quantités de précipitations: 19.11.2020 23:00:00 - 25.11.2020 23:00:00 (CET)
Date & Time tt [°C] td [°C] tt 5cm [°C] tt -20cm [°C] tt -100cm [°C] ff [km/h] ff [knt] fx [km/h] fx [knt] dd ppp [hPa] vv [km] sd [min] rr [mm]
25.11.2020 23:00:00 6,8 3,0 2,7 7,2 11,3 13 7 23 13 SSE 1020,8 44 0 0,0
25.11.2020 22:00:00 9,9 3,4 9,2 7,2 11,3 18 10 28 15 S 1019,8 51 0 0,0
25.11.2020 21:00:00 10,4 3,0 8,5 7,2 11,3 20 11 28 15 SSE 1019,6 58 0 0,0
25.11.2020 20:00:00 10,6 2,7 6,6 7,2 11,3 14 7 27 14 SSW 1019,6 58 0 0,0
25.11.2020 19:00:00 9,0 2,8 3,6 7,3 11,3 15 8 23 12 S 1019,2 54 0 0,0
25.11.2020 18:00:00 8,2 1,3 2,6 7,2 11,3 3 2 18 10 NNE 1019,2 56 0 0,0
25.11.2020 17:00:00 10,7 1,5 9,0 7,0 11,3 18 10 34 18 S 1018,6 60 28 0,0
25.11.2020 16:00:00 12,6 1,6 13,4 6,7 11,3 20 11 39 21 SSW 1018,2 34 60 0,0
25.11.2020 15:00:00 13,7 3,5 15,8 6,4 11,4 19 10 42 23 S 1017,8 30 60 0,0
25.11.2020 14:00:00 13,8 4,1 14,4 6,1 11,3 24 13 42 23 S 1017,9 33 56 0,0
25.11.2020 13:00:00 13,1 4,8 12,8 5,8 11,4 18 10 36 19 S 1018,7 40 10 0,0
25.11.2020 12:00:00 12,2 5,1 11,0 5,5 11,4 16 9 35 19 S 1019,3 19 36 0,0
25.11.2020 11:00:00 11,6 4,6 11,3 5,4 11,4 25 14 34 19 S 1019,6 29 50 0,0
25.11.2020 10:00:00 11,0 4,4 9,1 5,4 11,4 19 10 31 17 SSE 1019,4 39 60 0,0
25.11.2020 09:00:00 7,1 3,7 2,4 5,4 11,4 14 7 20 11 SSE 1020,0 35 38 0,0
25.11.2020 08:00:00 6,9 2,8 0,7 5,4 11,4 8 5 19 11 S 1019,5 46 0 0,0
25.11.2020 07:00:00 5,4 1,9 0,1 5,5 11,5 11 6 20 11 S 1019,5 48 0 0,0
25.11.2020 06:00:00 3,6 1,0 0,2 5,6 11,4 13 7 19 10 SE 1019,7 40 0 0,0
25.11.2020 05:00:00 2,4 0,9 0,6 5,7 11,5 16 9 19 10 SSE 1020,0 27 0 0,0
25.11.2020 04:00:00 4,3 1,8 1,4 5,7 11,5 14 7 20 11 SSE 1019,9 38 0 0,0
25.11.2020 03:00:00 4,9 1,9 -0,4 5,8 11,5 13 7 18 10 SSE 1020,1 35 0 0,0
25.11.2020 02:00:00 3,3 2,0 -1,7 5,9 11,5 8 5 15 8 SSE 1020,5 31 0 0,0
25.11.2020 01:00:00 3,4 1,9 -1,4 6,0 11,5 6 4 12 6 S 1020,9 29 0 0,0
25.11.2020 00:00:00 6,0 2,3 -0,6 6,1 11,5 9 5 16 9 SSW 1020,7 35 0 0,0
24.11.2020 23:00:00 2,5 0,2 -1,8 6,2 11,6 10 5 16 8 SSE 1021,5 33 0 0,0
24.11.2020 22:00:00 2,6 -1,4 -1,7 6,4 11,6 7 4 17 9 SSW 1021,8 33 0 0,0
24.11.2020 21:00:00 7,2 0,8 -3,3 6,5 11,6 11 6 17 9 SSW 1021,1 35 0 0,0
24.11.2020 20:00:00 3,4 0,3 -2,0 6,5 11,6 3 2 16 9 SE 1021,7 10 0 0,0
24.11.2020 19:00:00 2,7 0,3 0,2 6,5 11,6 14 8 23 13 S 1021,7 9 0 0,0
24.11.2020 18:00:00 4,5 1,2 2,5 6,5 11,6 14 8 27 14 S 1021,3 10 0 0,0
24.11.2020 17:00:00 6,7 1,8 5,4 6,3 11,6 19 11 29 16 S 1020,9 11 31 0,0
24.11.2020 16:00:00 9,4 2,5 10,4 5,9 11,6 20 11 27 15 SSE 1020,6 13 60 0,0
24.11.2020 15:00:00 11,1 3,1 13,5 5,6 11,7 19 10 26 14 SSE 1020,8 17 60 0,0
24.11.2020 14:00:00 12,0 1,6 15,2 5,2 11,7 18 10 24 13 SSE 1021,4 20 60 0,0
24.11.2020 13:00:00 11,8 1,1 13,9 4,9 11,7 15 8 21 11 S 1022,3 25 60 0,0
24.11.2020 12:00:00 9,9 0,8 12,0 4,7 11,7 15 8 26 14 S 1023,8 26 60 0,0
24.11.2020 11:00:00 8,2 0,4 7,8 4,7 11,7 13 7 22 12 S 1025,3 26 60 0,0
24.11.2020 10:00:00 5,0 0,0 2,7 4,7 11,7 13 7 22 12 SSE 1026,0 39 60 0,0
24.11.2020 09:00:00 -1,9 -2,9 -7,3 4,9 11,8 0 0 6 3 N 1027,6 10 40 0,0
24.11.2020 08:00:00 -4,8 -5,6 -8,6 5,0 11,8 0 0 4 2 N 1028,2 12 0 0,0
24.11.2020 07:00:00 -3,6 -4,0 -8,4 5,1 11,8 0 0 4 2 N 1028,2 12 0 0,0
24.11.2020 06:00:00 -4,3 -5,1 -8,4 5,3 11,8 0 0 5 3 N 1028,5 8 0 0,0
24.11.2020 05:00:00 -3,8 -4,5 -8,1 5,4 11,8 3 1 3 2 E 1028,6 12 0 0,0
24.11.2020 04:00:00 -3,5 -4,5 -7,6 5,6 11,8 0 0 3 2 N 1029,2 13 0 0,0
24.11.2020 03:00:00 -3,3 -4,4 -6,6 5,7 11,9 3 2 6 4 NNE 1029,7 11 0 0,0
24.11.2020 02:00:00 -2,9 -4,6 -7,0 5,8 11,8 5 3 8 4 S 1029,8 21 0 0,0
24.11.2020 01:00:00 -2,7 -4,0 -7,0 6,0 11,8 3 1 6 4 SSE 1030,5 16 0 0,0
24.11.2020 00:00:00 -2,4 -4,0 -6,6 6,2 11,9 4 2 6 3 SSE 1030,9 14 0 0,0
23.11.2020 23:00:00 -2,1 -3,2 -6,1 6,4 11,9 0 0 5 3 N 1031,1 12 0 0,0
23.11.2020 22:00:00 -1,4 -2,7 -5,9 6,6 11,9 3 2 6 3 SSE 1030,9 14 0 0,0
23.11.2020 21:00:00 -1,3 -3,3 -5,0 6,7 11,9 4 2 5 3 S 1030,8 15 0 0,0
23.11.2020 20:00:00 0,4 -2,5 -4,2 6,8 11,9 3 1 8 4 SE 1030,6 19 0 0,0
23.11.2020 19:00:00 0,8 -2,8 -3,9 6,9 11,9 3 2 7 4 SSE 1030,3 23 0 0,0
23.11.2020 18:00:00 3,9 -1,9 -2,6 6,8 11,9 5 3 6 4 SSE 1029,5 26 0 0,0
23.11.2020 17:00:00 7,2 -1,8 4,0 6,7 12,0 3 2 8 5 N 1028,9 27 25 0,0
23.11.2020 16:00:00 9,1 -2,5 11,3 6,4 12,0 4 2 10 6 NW 1028,6 30 30 0,0
23.11.2020 15:00:00 9,4 -3,5 12,8 6,0 12,0 6 3 9 5 NNW 1028,6 33 53 0,0
23.11.2020 14:00:00 9,4 -4,2 13,0 5,6 12,0 4 2 16 9 NNW 1029,1 28 60 0,0
23.11.2020 13:00:00 7,9 -2,5 11,4 5,3 12,0 6 3 10 6 NW 1029,9 16 43 0,0
23.11.2020 12:00:00 7,6 -1,9 10,6 5,1 12,1 4 2 9 5 WNW 1030,3 18 60 0,0
23.11.2020 11:00:00 4,9 -2,9 6,2 5,1 12,1 0 0 7 4 N 1031,2 28 60 0,0
23.11.2020 10:00:00 1,4 -2,7 3,8 5,2 12,1 4 2 9 5 NNE 1031,8 19 60 0,0
23.11.2020 09:00:00 -1,9 -3,6 -7,1 5,3 12,1 4 2 6 4 NE 1032,1 7 42 0,0
23.11.2020 08:00:00 -3,7 -5,1 -8,2 5,5 12,2 3 2 8 5 WSW 1032,0 20 0 0,0
23.11.2020 07:00:00 -4,1 -5,9 -7,5 5,6 12,2 0 0 7 4 N 1032,0 21 0 0,0
23.11.2020 06:00:00 -4,3 -6,0 -7,1 5,7 12,2 5 3 8 5 SSE 1031,8 22 0 0,0
23.11.2020 05:00:00 -3,9 -5,4 -7,9 5,8 12,2 6 3 9 5 NNW 1031,5 16 0 0,0
23.11.2020 04:00:00 -3,8 -4,9 -7,4 6,0 12,2 3 1 5 3 SE 1031,5 14 0 0,0
23.11.2020 03:00:00 -3,6 -5,0 -7,0 6,1 12,2 0 0 5 3 N 1031,9 15 0 0,0
23.11.2020 02:00:00 -2,8 -4,1 -6,2 6,3 12,2 2 1 8 4 NE 1031,6 14 0 0,0
23.11.2020 01:00:00 -2,3 -5,3 -6,5 6,5 12,2 6 4 12 6 SSW 1031,7 12 0 0,0
23.11.2020 00:00:00 -2,2 -3,9 -6,3 6,6 12,3 4 2 6 3 N 1031,7 11 0 0,0
22.11.2020 23:00:00 -1,2 -2,5 -5,3 6,8 12,3 4 2 9 5 NNW 1031,3 9 0 0,0
22.11.2020 22:00:00 -1,6 -2,9 -5,3 6,9 12,3 5 3 8 4 ESE 1030,9 8 0 0,0
22.11.2020 21:00:00 -0,8 -2,8 -4,4 7,1 12,3 6 3 15 8 SSE 1030,9 8 0 0,0
22.11.2020 20:00:00 -0,6 -2,3 -4,3 7,3 12,3 10 6 12 7 S 1030,9 11 0 0,0
22.11.2020 19:00:00 0,7 -2,0 -2,5 7,4 12,4 4 2 9 5 NE 1030,2 19 0 0,0
22.11.2020 18:00:00 2,2 -1,1 -1,5 7,2 12,3 8 5 11 6 S 1029,1 27 0 0,0
22.11.2020 17:00:00 7,5 -1,5 3,2 7,0 12,3 2 1 6 4 NE 1028,0 29 37 0,0
22.11.2020 16:00:00 10,5 -1,6 15,0 6,7 12,4 2 1 6 3 NE 1027,6 30 60 0,0
22.11.2020 15:00:00 9,8 -1,6 13,8 6,3 12,4 2 1 12 7 N 1028,2 33 60 0,0
22.11.2020 14:00:00 9,2 -1,0 14,8 5,9 12,4 7 4 16 8 NW 1028,7 20 60 0,0
22.11.2020 13:00:00 8,1 -1,2 12,7 5,6 12,4 7 4 13 7 N 1029,3 42 60 0,0
22.11.2020 12:00:00 7,9 -1,6 10,1 5,5 12,4 4 2 14 7 WSW 1029,9 31 60 0,0
22.11.2020 11:00:00 5,8 -2,8 8,0 5,5 12,5 3 2 12 7 SSE 1030,8 32 60 0,0
22.11.2020 10:00:00 2,2 -2,0 2,4 5,6 12,5 3 2 5 3 WSW 1031,7 25 60 0,0
22.11.2020 09:00:00 -1,9 -3,0 -8,9 5,7 12,5 0 0 4 2 N 1032,9 10 43 0,0
22.11.2020 08:00:00 -4,6 -5,4 -8,8 5,9 12,5 0 0 7 4 N 1033,1 11 0 0,0
22.11.2020 07:00:00 -5,0 -6,1 -9,1 6,0 12,5 4 2 5 3 NW 1033,0 12 0 0,0
22.11.2020 06:00:00 -5,0 -6,1 -9,1 6,2 12,5 2 1 7 4 NE 1032,9 14 0 0,0
22.11.2020 05:00:00 -4,4 -5,1 -9,1 6,4 12,5 0 0 4 2 N 1032,6 13 0 0,0
22.11.2020 04:00:00 -3,8 -4,8 -8,5 6,5 12,6 0 0 4 2 N 1033,2 15 0 0,0
22.11.2020 03:00:00 -3,4 -4,5 -7,9 6,7 12,6 3 2 6 3 WSW 1033,3 11 0 0,0
22.11.2020 02:00:00 -3,8 -5,1 -7,6 6,9 12,6 5 3 6 3 NNE 1033,4 10 0 0,0
22.11.2020 01:00:00 -3,6 -5,2 -7,3 7,0 12,6 4 2 8 4 SSE 1033,5 11 0 0,0
22.11.2020 00:00:00 -3,2 -4,2 -7,3 7,2 12,6 3 2 4 2 S 1034,0 12 0 0,0
21.11.2020 23:00:00 -3,0 -3,7 -6,6 7,5 12,6 0 0 10 5 N 1034,2 11 0 0,0
21.11.2020 22:00:00 -2,7 -4,6 -6,1 7,6 12,6 4 2 8 4 S 1034,6 15 0 0,0
21.11.2020 21:00:00 -3,0 -4,4 -6,0 7,8 12,6 7 4 9 5 S 1034,8 17 0 0,0
21.11.2020 20:00:00 -1,2 -3,2 -5,4 8,0 12,6 3 2 4 2 S 1034,4 26 0 0,0
21.11.2020 19:00:00 -0,1 -3,5 -5,2 8,1 12,6 3 2 8 4 SE 1033,6 36 0 0,0
21.11.2020 18:00:00 1,4 -3,1 -3,2 8,0 12,6 6 3 8 4 S 1033,3 52 0 0,0
21.11.2020 17:00:00 5,6 -3,5 3,2 7,9 12,7 3 2 6 3 NNW 1032,4 49 39 0,0
21.11.2020 16:00:00 7,1 -2,9 12,2 7,6 12,7 4 2 7 4 N 1031,9 24 60 0,0
21.11.2020 15:00:00 7,2 -2,5 11,7 7,2 12,7 3 2 10 6 E 1032,3 45 60 0,0
21.11.2020 14:00:00 6,1 -1,8 10,6 6,9 12,7 6 3 12 6 NNE 1033,4 31 58 0,0
21.11.2020 13:00:00 5,1 -0,3 9,3 6,6 12,7 4 2 11 6 E 1034,7 22 60 0,0
21.11.2020 12:00:00 4,4 0,2 5,9 6,5 12,7 3 2 9 5 S 1035,8 20 60 0,0
21.11.2020 11:00:00 2,0 -0,1 0,0 6,6 12,7 4 2 10 5 E 1036,6 6 20 0,0
21.11.2020 10:00:00 -1,3 -1,9 -3,4 6,8 12,7 3 2 8 4 SSE 1037,0 15 0 0,0
21.11.2020 09:00:00 -4,0 -4,5 -10,0 7,0 12,8 0 0 8 4 N 1037,3 17 7 0,0
21.11.2020 08:00:00 -5,6 -6,1 -10,2 7,1 12,7 0 0 7 4 N 1037,0 11 0 0,0
21.11.2020 07:00:00 -4,9 -5,6 -9,7 7,4 12,8 4 2 5 3 NW 1036,4 12 0 0,0
21.11.2020 06:00:00 -3,9 -4,4 -8,9 7,6 12,7 3 1 8 4 ESE 1036,4 12 0 0,0
21.11.2020 05:00:00 -3,0 -3,3 -8,3 7,8 12,8 5 3 7 4 S 1036,5 18 0 0,0
21.11.2020 04:00:00 -3,7 -4,7 -8,7 8,0 12,8 5 3 8 5 SSE 1036,7 14 0 0,0
21.11.2020 03:00:00 -4,5 -5,6 -8,7 8,2 12,7 7 4 8 5 S 1037,2 15 0 0,0
21.11.2020 02:00:00 -2,4 -3,4 -6,8 8,5 12,8 2 1 9 5 S 1036,7 14 0 0,0
21.11.2020 01:00:00 -2,2 -2,9 -6,6 8,7 12,8 3 2 11 6 SSE 1036,8 18 0 0,0
21.11.2020 00:00:00 -0,5 -2,7 -4,4 9,0 12,8 6 3 15 8 N 1036,5 27 0 0,0
20.11.2020 23:00:00 -0,8 -1,6 -5,0 9,2 12,8 4 2 13 7 SE 1036,4 28 0 0,0
20.11.2020 22:00:00 -0,1 -1,8 -3,3 9,4 12,8 5 3 11 6 NNE 1036,5 26 0 0,0
20.11.2020 21:00:00 2,3 -0,6 -0,5 9,5 12,8 7 4 14 8 N 1035,8 30 0 0,0
20.11.2020 20:00:00 4,1 -0,1 3,2 9,6 12,8 8 4 19 11 NNW 1035,4 47 0 0,0
20.11.2020 19:00:00 5,0 -0,2 4,6 9,7 12,8 8 5 20 11 NNW 1035,2 47 0 0,0
20.11.2020 18:00:00 5,9 -0,4 5,2 9,8 12,8 11 6 27 15 NNW 1034,7 57 0 0,0
20.11.2020 17:00:00 6,8 -0,9 6,0 9,8 12,8 16 9 36 20 N 1034,0 58 27 0,0
20.11.2020 16:00:00 7,6 -0,4 7,1 9,7 12,8 20 11 44 24 N 1033,7 53 13 0,0
20.11.2020 15:00:00 8,1 0,8 8,5 9,6 12,9 19 11 41 22 N 1033,5 41 4 0,0
20.11.2020 14:00:00 8,7 2,3 10,4 9,5 12,8 21 12 41 22 N 1033,2 24 49 0,0
20.11.2020 13:00:00 8,1 3,5 8,4 9,4 12,9 16 8 36 19 NNW 1033,7 34 15 0,0
20.11.2020 12:00:00 7,0 4,0 6,9 9,4 12,9 17 9 36 20 N 1034,3 28 12 0,0
20.11.2020 11:00:00 6,1 4,1 6,1 9,4 12,9 20 11 35 19 N 1034,7 27 0 0,0
20.11.2020 10:00:00 5,5 4,0 5,5 9,4 12,9 19 11 35 19 N 1034,3 20 0 0,0
20.11.2020 09:00:00 5,2 4,0 4,7 9,4 12,9 16 9 32 17 N 1034,6 25 12 0,0
20.11.2020 08:00:00 4,9 3,9 4,7 9,5 12,9 13 7 31 17 NNW 1034,2 19 0 0,2
20.11.2020 07:00:00 5,2 3,8 5,0 9,5 12,9 14 7 33 18 N 1034,2 18 0 0,0
20.11.2020 06:00:00 5,1 3,6 4,9 9,6 12,9 14 8 37 20 NNW 1034,1 29 0 0,0
20.11.2020 05:00:00 5,3 3,6 4,9 9,6 12,9 19 10 34 18 N 1034,1 20 0 0,0
20.11.2020 04:00:00 5,8 3,5 5,2 9,7 12,9 13 7 26 14 N 1034,3 38 0 0,0
20.11.2020 03:00:00 5,5 3,3 5,0 9,8 12,9 12 6 23 12 N 1034,3 36 0 0,0
20.11.2020 02:00:00 5,4 3,6 4,6 9,9 12,9 15 8 25 14 N 1034,2 40 0 0,0
20.11.2020 01:00:00 5,3 3,3 4,5 10,0 12,9 8 4 20 11 N 1034,3 55 0 0,0
20.11.2020 00:00:00 5,6 3,4 4,9 10,0 12,9 14 8 37 20 N 1034,4 44 0 0,2
19.11.2020 23:00:00 6,2 3,4 3,9 10,1 12,9 4 2 10 6 E 1034,4 44 0 0,0

tt = Température de l'air
td = dewpoint
tt 5cm = Température de l'air 5cm
tt -20cm = Température de l'air -20cm
tt -100cm = Température de l'air -100cm
ff = Vitesse du vent
fx = gusts
dd = Direction du vent
ppp = reduced air pressure
vv = visibility
sd = Ensoleillement
rr = Quantités de précipitations

stations d'obs. à proximité